Location: ??????
(55.6361°N, 38.0803°E)
Time: 02:45:41
(UTC+00:00)

Cosmos 44 Rocket - Pass Details

Date: 30 March 2020
Orbit: 656 x 734 km, 65.1° (Epoch: 31 May)

Event Time Altitude Azimuth Distance (km) Brightness Sun altitude
Exits shadow 02:21:23 - 261° (W) 2,239 5.2 -6.6°
Reaches altitude 10° 02:21:50 10° 263° (W) 2,072 5.1 -6.5°
Maximum altitude 02:26:16 40° 334° (NNW) 972 4.0 -5.9°
Drops below altitude 10° 02:30:44 10° 44° (NE) 2,092 6.8 -5.3°
Sets 02:33:12 0° 52° (NE) 3,015 8.0 -5.0°
